SCP
0 0 0 0 0 0 0 0 0 0 0 0 0 0 0 0 0 0 0 0 0 0 0 0 0 0 0 0 0 0 0 0 0 0 0 0 0 0 0 0 0 0 0 0
0 0 0 0 0 0 0 0 0 0 0 0 0 0 0 -0 0 -0 0 0 0 0 0 0 0 0 0 0 0 0 0 0 0 0 0 0 0 0 0 0 0 0 0 0
0 0 0 0 0 0 0 0 0 0 0 0 0 0 0 0 -0 -0 -0 0 0 0 0 0 0 0 0 0 0 0 0 0 0 0 0 0 0 0 0 0 0 0 0 0
0 0 0 0 0 0 0 0 0 0 0 0 0 0 0 0 -0 0 0 0 0 0 0 0 0 0 0 0 0 0 0 0 0 0 0 0 0 0 0 0 0 0 0 0
0 0 0 0 0 0 0 0 0 -0 -0 -0 -0 -0 0 0 0 0 0 0 0 0 0 0 0 0 0 0 0 0 0 0 0 0 0 0 0 0 0 0 0 0 0 0
0 0 0 0 0 0 0 0 0 0 0 -0 -0 0 0 0 0 0 0 0 0 0 0 0 0 0 0 0 0 0 0 0 0 0 0 0 0 0 0 0 0 0 0 0
0 0 0 0 0 0 0 0 0 0 0 0 0 0 0 0 0 0 0 0 0 0 0 0 0 0 0 0 0 0 0 0 0 0 0 0 0 0 0 0 0 0 0 0
0 0 0 0 0 0 0 0 0 0 0 0 0 0 0 0 0 0 0 0 0 0 0 0 0 0 0 0 0 0 0 0 0 0 0 0 0 0 0 0 0 0 0 0
0 0 0 0 0 0 0 -0 0 0 0 0 0 0 0 0 0 0 0 0 0 0 0 0 0 0 0 0 0 0 0 0 0 0 0 0 0 0 0 0 0 0 0 0
0 0 0 0 -0 -0 -0 -0 0 0 0 0 0 0 0 0 0 0 0 0 0 0 0 0 0 0 0 0 0 0 0 0 0 0 0 0 0 0 0 0 0 0 0 0
0 0 0 -0 0 -0 -0 0 0 0 0 0 0 0 0 0 0 0 0 0 0 0 0 0 0 0 0 0 0 0 0 0 0 0 0 0 0 0 0 0 -0 -0 0 0
0 0 0 0 0 0 -0 0 0 -0 -0 0 0 0 0 0 0 0 0 0 0 0 0 0 0 0 0 0 0 0 0 0 0 0 0 0 0 0 0 0 0 0 0 0
0 0 0 0 0 0 0 0 0 0 0 0 0 0 0 0 0 0 0 0 0 0 0 0 0 0 0 0 0 0 0 0 0 0 0 0 0 0 0 0 0 0 -0 -0
0 0 0 0 0 0 0 0 0 0 0 0 0 0 0 0 0 0 0 0 0 0 0 0 0 0 0 0 0 0 0 0 0 0 0 0 0 0 0 0 0 0 0 0
0 0 0 0 0 0 0 0 0 0 0 0 0 0 0 0 0 0 0 0 0 0 0 0 0 0 0 0 0 0 0 0 0 0 0 0 0 0 0 0 0 0 0 -0
0 0 0 0 0 0 0 0 0 0 0 0 0 0 0 0 0 0 0 0 0 0 0 0 0 0 0 0 0 0 0 0 0 0 0 0 0 0 0 0 0 0 0 0
-0 0 0 0 0 -0 0 0 0 0 0 0 0 0 0 0 -0 -0 0 0 0 0 0 0 0 0 0 0 0 0 0 0 0 0 0 0 0 0 0 0 0 0 0 -0
-0 0 -0 -0 -0 0 0 0 0 0 0 0 0 0 0 0 0 0 0 0 0 0 0 0 0 0 0 0 0 0 0 0 0 0 0 0 0 0 0 0 0 0 0 0
-0 -0 0 0 0 0 0 0 0 0 0 0 0 0 0 0 0 0 0 0 0 0 0 0 0 0 0 0 0 0 0 0 0 0 0 0 0 0 0 0 0 0 0 0
-0 -0 0 0 0 0 0 0 0 0 0 0 0 0 0 0 0 0 0 0 0 -0 -0 0 0 0 0 0 0 0 0 0 0 0 0 0 0 0 0 0 0 0 0 0
-0 0 0 0 0 0 0 0 0 0 0 0 0 0 0 0 0 0 0 0 -0 0 0 0 0 0 0 0 0 0 -0 0 0 0 0 0 0 0 0 0 0 0 0 0
0 0 -0 -0 0 0 0 0 0 0 0 0 0 0 0 0 0 0 0 0 -0 0 0 0 0 0 0 0 0 0 0 -0 -0 -0 -0 -0 0 0 0 0 0 0 0 0
0 0 -0 -0 -0 -0 0 0 -0 0 0 0 -0 -0 -0 -0 0 0 0 0 0 0 0 -0 0 0 0 -0 -0 -0 -0 -0 -0 -0 -0 -0 -0 -0 -0 -0 -0 -0 0 0
0 0 0 0 0 0 -0 -0 -0 -0 -0 -0 -0 -0 -0 -0 -0 -0 -0 0 0 0 0 0 0 0 0 -0 -0 -0 -0 -0 -0 -0 -0 -0 -0 -0 -0 -0 -0 -0 -0 -0
0 0 0 0 0 -0 -0 -0 -0 -0 0 0 -0 -0 -0 -0 -0 0 0 0 -0 -0 -0 -0 -0 -0 -0 -0 -0 -0 -0 -0 -0 -0 -0 -0 -0 -0 -0 -0 -0 -0 -0 -0
-0 0 0 0 0 0 0 0 0 -0 -0 -0 0 0 -0 -0 -0 -0 -0 -0 0 0 0 0 0 0 0 0 0 0 0 -0 -0 -0 -0 -0 -0 -0 -0 -0 -0 -0 -0 -0
0 -0 -0 0 0 0 -0 -0 0 0 0 -0 -0 -0 -0 -0 0 0 -0 0 0 0 0 0 0 0 0 0 0 0 0 -0 -0 -0 -0 -0 -0 -0 -0 0 0 0 0 0
Wind_Speed_500mb
19 32 31 23 31 25 16 11 13 17 30 35 28 29 34 48 54 58 54 58 53 50 44 38 31 25 20 16 13 13 10 9 13 18 25 28 31 34 35 34 31 32 34 33
10 20 17 17 27 31 15 16 19 32 20 22 34 53 49 47 52 50 48 50 43 39 33 29 23 19 16 14 13 15 19 23 25 27 28 31 34 34 31 27 28 27 26 27
7 6 9 13 4 8 11 2 35 16 20 38 35 32 43 46 51 49 45 42 37 31 25 18 12 10 10 13 17 21 25 27 27 29 27 27 27 21 18 21 21 22 24 25
6 5 6 5 4 16 33 18 24 43 41 35 44 53 52 41 60 47 42 36 29 21 13 8 11 16 19 22 25 27 28 27 27 24 21 22 14 13 17 19 26 27 27 31
7 6 6 7 10 6 8 17 25 49 43 57 70 74 44 38 44 44 35 25 18 10 7 12 17 22 23 23 25 25 24 23 16 15 17 13 10 15 18 19 23 29 33 36
4 9 6 2 7 30 3 13 28 39 42 44 57 22 10 27 35 35 27 16 8 6 12 18 20 18 18 21 20 19 21 15 9 11 12 6 12 12 13 17 20 28 32 31
9 7 5 2 8 21 7 15 43 54 57 35 10 18 50 37 33 23 14 7 5 9 15 19 17 18 17 16 14 17 18 16 12 11 9 3 9 7 11 14 19 32 30 32
4 6 7 29 15 6 25 53 59 46 50 71 72 69 45 35 26 17 12 13 15 15 17 20 19 16 16 16 19 20 16 12 12 11 9 4 2 7 10 13 19 31 32 27
10 6 16 35 38 45 53 65 54 71 62 82 73 55 41 35 27 24 20 20 19 19 21 22 21 22 21 22 21 21 17 13 9 8 5 8 3 7 7 10 18 28 35 33
7 15 22 45 57 69 72 76 69 69 71 63 68 50 44 37 31 29 28 27 25 24 23 26 25 24 24 26 24 22 18 13 8 5 2 8 3 5 7 9 17 25 32 38
16 17 47 54 50 70 76 75 71 60 56 56 55 49 42 37 34 33 30 28 26 27 28 28 26 25 25 28 27 24 21 16 8 3 4 5 4 5 6 12 17 25 32 35
7 22 41 27 41 52 79 72 65 63 59 51 47 49 43 41 34 32 29 28 27 28 25 25 24 24 26 27 28 29 25 20 11 3 5 6 6 8 10 13 15 22 29 28
22 59 66 55 57 57 75 67 61 60 53 51 44 40 38 37 33 30 28 26 26 26 23 20 22 23 25 27 28 29 30 23 14 5 1 5 5 6 10 9 12 16 22 25
64 67 51 46 52 58 61 59 54 53 45 42 38 35 33 28 23 24 25 26 22 21 21 22 23 25 25 26 26 26 26 24 19 13 7 3 2 2 4 7 7 6 11 14
39 59 73 63 55 53 49 47 46 43 38 37 31 29 24 22 22 23 20 19 20 22 26 24 22 23 24 25 23 23 23 24 21 18 18 15 12 11 11 12 15 11 7 5
62 61 57 55 47 39 34 32 35 33 29 27 23 20 19 17 18 18 20 23 24 29 31 28 24 25 23 22 21 21 21 20 18 18 19 20 20 20 20 20 21 23 22 24
62 46 47 44 37 31 27 26 25 25 23 21 20 17 17 15 16 19 26 27 27 27 30 29 26 24 22 22 20 20 22 23 20 18 21 23 24 24 23 24 24 26 28 26
45 44 37 35 31 28 27 23 20 19 18 19 21 15 17 19 24 25 26 26 27 29 31 29 25 25 25 25 23 20 20 20 19 22 22 24 25 24 24 23 24 26 26 26
36 38 32 28 22 21 22 20 17 16 17 18 20 22 23 25 25 25 23 23 29 33 36 32 25 25 26 29 24 24 24 22 24 27 27 25 25 24 24 24 25 27 28 30
36 30 26 25 23 18 18 16 14 15 17 18 23 25 25 26 25 23 21 25 30 32 30 31 30 30 30 29 27 28 28 30 31 32 31 32 32 31 31 31 32 33 34 35
36 29 26 24 23 20 16 15 13 16 19 20 21 28 27 26 23 21 22 26 26 29 28 29 31 32 31 29 28 28 29 31 33 36 35 35 34 33 34 34 34 35 37 38
31 29 26 23 21 23 20 17 16 18 19 21 28 27 26 24 23 18 24 25 26 26 28 31 33 32 31 28 28 28 29 31 33 34 35 35 35 35 35 35 36 37 37 38
31 26 24 23 23 27 26 23 22 20 20 22 27 27 23 20 19 14 20 21 23 24 26 29 30 31 29 27 29 30 29 30 32 34 34 35 36 37 37 36 36 36 37 38
28 23 21 21 22 24 27 27 24 21 20 24 26 23 21 19 14 8 13 17 22 23 22 25 27 28 27 26 26 28 29 29 30 30 31 32 34 35 36 38 39 39 40 41
28 22 22 24 23 23 23 25 24 23 22 23 24 22 18 14 10 10 11 14 17 19 21 21 22 23 23 23 23 24 26 27 28 29 30 32 33 33 35 36 38 40 41 42
24 15 15 12 13 16 18 19 19 20 19 22 22 17 14 11 9 9 11 11 14 18 19 19 18 19 19 20 21 22 24 26 27 29 31 33 35 36 37 37 38 39 40 42
21 16 13 15 17 18 14 13 13 15 17 19 21 22 20 18 16 14 11 11 14 16 17 19 19 18 18 19 20 21 24 28 30 32 34 35 36 37 38 39 40 40 41 42
Wind_Direction_500mb
130 137 148 152 172 175 171 159 149 172 154 164 151 141 125 121 118 115 115 121 116 112 109 106 104 96 87 79 66 48 16 352 345 340 330 322 317 317 320 324 325 326 325 324
81 100 118 143 169 178 163 96 68 116 85 120 107 117 123 125 117 111 117 120 115 113 110 106 97 80 55 36 13 355 331 329 326 321 313 310 312 318 325 329 336 338 341 336
39 30 117 78 27 128 107 124 140 145 153 132 126 122 127 127 121 121 123 119 118 112 103 92 70 40 355 343 335 323 324 321 319 317 314 315 325 330 336 349 355 351 345 344
93 32 111 258 231 107 91 52 103 109 130 121 112 98 97 113 126 123 125 124 120 110 90 49 1 339 328 324 321 320 318 314 312 310 312 325 344 358 3 16 356 349 348 343
107 82 163 69 135 130 121 50 128 120 118 118 116 98 65 109 122 122 123 119 110 89 24 346 333 330 331 328 328 329 328 327 314 310 332 360 30 24 24 12 357 359 351 340
98 96 174 44 112 112 88 89 116 123 129 136 141 126 137 122 122 119 119 115 89 21 350 334 332 338 332 334 343 346 345 337 321 341 342 28 33 35 8 7 3 360 356 3
111 100 92 354 340 331 149 157 136 139 141 131 90 115 140 136 122 116 112 90 16 2 357 354 350 349 0 10 9 9 355 337 323 326 340 66 30 352 349 356 351 357 6 10
83 106 112 352 329 115 137 117 124 120 125 109 114 126 129 126 118 109 84 62 47 30 30 26 25 31 34 21 14 1 348 331 318 320 328 148 10 316 336 348 344 354 11 18
40 58 37 52 81 95 116 113 117 120 121 128 128 125 126 118 109 97 83 70 63 53 52 49 41 32 24 17 6 356 345 336 314 315 327 162 271 314 316 334 352 357 13 15
127 20 62 67 81 98 115 112 115 123 129 130 122 122 115 108 98 87 76 67 62 60 55 45 39 31 22 11 7 1 356 347 337 320 288 188 288 295 313 352 345 1 8 15
82 113 77 56 74 103 108 113 113 115 117 117 117 112 109 102 93 82 74 66 59 52 48 43 38 32 20 14 16 13 6 359 339 274 193 192 208 226 292 324 332 343 355 359
88 90 104 92 94 109 113 109 113 115 111 106 105 106 102 90 82 75 67 60 55 46 43 38 36 29 22 16 17 14 9 8 359 332 196 196 184 233 270 294 319 326 332 339
98 99 100 101 105 107 108 111 110 105 101 103 100 100 94 88 76 69 61 53 48 40 36 35 34 29 24 17 17 15 12 13 20 17 218 197 205 201 230 288 303 304 310 317
99 105 90 102 103 108 106 106 105 101 101 98 99 95 90 84 76 64 54 46 39 37 36 32 26 25 21 18 18 19 18 23 25 23 28 71 181 276 308 300 301 312 301 305
105 114 112 115 112 109 109 111 106 99 96 93 92 93 95 89 70 62 52 45 39 43 39 35 32 29 24 20 21 23 24 29 30 41 49 58 65 66 57 45 33 19 21 19
112 111 115 110 111 112 113 111 104 102 100 101 97 87 80 74 73 69 65 51 45 42 37 35 33 30 26 28 28 31 34 37 31 42 53 64 70 69 64 58 52 44 29 21
120 113 116 114 118 121 117 112 107 108 110 109 105 90 85 88 85 79 66 53 47 44 37 34 36 32 33 38 35 35 34 38 40 48 55 56 59 58 58 56 52 46 43 36
122 120 116 108 118 123 122 116 113 109 110 116 121 108 95 94 84 81 71 61 56 51 46 37 36 35 41 43 37 36 36 42 47 52 57 59 58 58 53 53 50 50 47 40
121 117 110 103 100 108 114 114 112 111 112 116 117 108 98 86 86 83 79 71 63 55 47 40 41 45 45 48 43 47 49 49 53 56 54 54 57 53 54 54 52 48 45 41
124 113 106 99 98 95 107 110 108 111 112 116 117 117 103 93 92 84 79 71 65 51 43 45 46 52 51 51 50 54 55 58 57 57 54 54 53 50 47 45 42 39 38 37
132 125 107 98 96 94 97 97 104 113 111 111 117 123 103 94 97 87 79 74 64 57 42 46 49 51 52 51 51 55 57 56 55 55 54 50 46 45 42 38 37 34 31 28
140 124 108 95 91 100 99 99 102 109 115 122 132 127 113 106 100 94 80 70 64 57 48 46 49 51 51 50 50 49 49 50 50 49 48 45 41 39 36 33 32 30 28 25
137 122 112 103 98 100 97 97 99 101 114 127 132 133 133 117 98 84 78 68 59 52 46 45 42 46 48 45 45 45 45 45 44 43 41 39 34 32 30 29 28 27 25 23
139 127 116 114 114 106 102 103 100 100 117 131 134 127 116 103 97 87 68 59 52 43 38 38 34 33 37 38 38 35 36 37 36 35 34 31 29 26 23 23 21 19 18 18
157 145 145 140 131 123 113 110 106 105 111 125 134 128 114 101 88 65 64 49 41 31 26 23 22 25 26 27 28 27 28 29 28 26 24 21 19 16 14 13 12 12 11 8
165 152 135 129 150 146 135 124 116 113 114 117 123 122 109 103 100 77 61 39 21 11 9 12 16 22 25 24 22 25 27 24 20 17 13 9 6 3 2 2 1 360 358 359
170 167 174 192 204 201 183 155 135 122 129 128 115 105 97 96 92 89 75 48 34 31 39 37 31 28 24 23 21 18 14 11 8 7 5 3 360 357 355 354 353 351 349 349
Wind_Speed_850mb
19 32 31 23 31 25 16 11 13 17 30 35 28 29 34 48 54 58 54 58 53 50 44 38 31 25 20 16 13 13 10 9 13 18 25 28 31 34 35 34 31 32 34 33
10 20 17 17 27 31 15 16 19 32 20 22 34 53 49 47 52 50 48 50 43 39 33 29 23 19 16 14 13 15 19 23 25 27 28 31 34 34 31 27 28 27 26 27
7 6 9 13 4 8 11 2 35 16 20 38 35 32 43 46 51 49 45 42 37 31 25 18 12 10 10 13 17 21 25 27 27 29 27 27 27 21 18 21 21 22 24 25
6 5 6 5 4 16 33 18 24 43 41 35 44 53 52 41 60 47 42 36 29 21 13 8 11 16 19 22 25 27 28 27 27 24 21 22 14 13 17 19 26 27 27 31
7 6 6 7 10 6 8 17 25 49 43 57 70 74 44 38 44 44 35 25 18 10 7 12 17 22 23 23 25 25 24 23 16 15 17 13 10 15 18 19 23 29 33 36
4 9 6 2 7 30 3 13 28 39 42 44 57 22 10 27 35 35 27 16 8 6 12 18 20 18 18 21 20 19 21 15 9 11 12 6 12 12 13 17 20 28 32 31
9 7 5 2 8 21 7 15 43 54 57 35 10 18 50 37 33 23 14 7 5 9 15 19 17 18 17 16 14 17 18 16 12 11 9 3 9 7 11 14 19 32 30 32
4 6 7 29 15 6 25 53 59 46 50 71 72 69 45 35 26 17 12 13 15 15 17 20 19 16 16 16 19 20 16 12 12 11 9 4 2 7 10 13 19 31 32 27
10 6 16 35 38 45 53 65 54 71 62 82 73 55 41 35 27 24 20 20 19 19 21 22 21 22 21 22 21 21 17 13 9 8 5 8 3 7 7 10 18 28 35 33
7 15 22 45 57 69 72 76 69 69 71 63 68 50 44 37 31 29 28 27 25 24 23 26 25 24 24 26 24 22 18 13 8 5 2 8 3 5 7 9 17 25 32 38
16 17 47 54 50 70 76 75 71 60 56 56 55 49 42 37 34 33 30 28 26 27 28 28 26 25 25 28 27 24 21 16 8 3 4 5 4 5 6 12 17 25 32 35
7 22 41 27 41 52 79 72 65 63 59 51 47 49 43 41 34 32 29 28 27 28 25 25 24 24 26 27 28 29 25 20 11 3 5 6 6 8 10 13 15 22 29 28
22 59 66 55 57 57 75 67 61 60 53 51 44 40 38 37 33 30 28 26 26 26 23 20 22 23 25 27 28 29 30 23 14 5 1 5 5 6 10 9 12 16 22 25
64 67 51 46 52 58 61 59 54 53 45 42 38 35 33 28 23 24 25 26 22 21 21 22 23 25 25 26 26 26 26 24 19 13 7 3 2 2 4 7 7 6 11 14
39 59 73 63 55 53 49 47 46 43 38 37 31 29 24 22 22 23 20 19 20 22 26 24 22 23 24 25 23 23 23 24 21 18 18 15 12 11 11 12 15 11 7 5
62 61 57 55 47 39 34 32 35 33 29 27 23 20 19 17 18 18 20 23 24 29 31 28 24 25 23 22 21 21 21 20 18 18 19 20 20 20 20 20 21 23 22 24
62 46 47 44 37 31 27 26 25 25 23 21 20 17 17 15 16 19 26 27 27 27 30 29 26 24 22 22 20 20 22 23 20 18 21 23 24 24 23 24 24 26 28 26
45 44 37 35 31 28 27 23 20 19 18 19 21 15 17 19 24 25 26 26 27 29 31 29 25 25 25 25 23 20 20 20 19 22 22 24 25 24 24 23 24 26 26 26
36 38 32 28 22 21 22 20 17 16 17 18 20 22 23 25 25 25 23 23 29 33 36 32 25 25 26 29 24 24 24 22 24 27 27 25 25 24 24 24 25 27 28 30
36 30 26 25 23 18 18 16 14 15 17 18 23 25 25 26 25 23 21 25 30 32 30 31 30 30 30 29 27 28 28 30 31 32 31 32 32 31 31 31 32 33 34 35
36 29 26 24 23 20 16 15 13 16 19 20 21 28 27 26 23 21 22 26 26 29 28 29 31 32 31 29 28 28 29 31 33 36 35 35 34 33 34 34 34 35 37 38
31 29 26 23 21 23 20 17 16 18 19 21 28 27 26 24 23 18 24 25 26 26 28 31 33 32 31 28 28 28 29 31 33 34 35 35 35 35 35 35 36 37 37 38
31 26 24 23 23 27 26 23 22 20 20 22 27 27 23 20 19 14 20 21 23 24 26 29 30 31 29 27 29 30 29 30 32 34 34 35 36 37 37 36 36 36 37 38
28 23 21 21 22 24 27 27 24 21 20 24 26 23 21 19 14 8 13 17 22 23 22 25 27 28 27 26 26 28 29 29 30 30 31 32 34 35 36 38 39 39 40 41
28 22 22 24 23 23 23 25 24 23 22 23 24 22 18 14 10 10 11 14 17 19 21 21 22 23 23 23 23 24 26 27 28 29 30 32 33 33 35 36 38 40 41 42
24 15 15 12 13 16 18 19 19 20 19 22 22 17 14 11 9 9 11 11 14 18 19 19 18 19 19 20 21 22 24 26 27 29 31 33 35 36 37 37 38 39 40 42
21 16 13 15 17 18 14 13 13 15 17 19 21 22 20 18 16 14 11 11 14 16 17 19 19 18 18 19 20 21 24 28 30 32 34 35 36 37 38 39 40 40 41 42
Wind_Direction_850mb
130 137 148 152 172 175 171 159 149 172 154 164 151 141 125 121 118 115 115 121 116 112 109 106 104 96 87 79 66 48 16 352 345 340 330 322 317 317 320 324 325 326 325 324
81 100 118 143 169 178 163 96 68 116 85 120 107 117 123 125 117 111 117 120 115 113 110 106 97 80 55 36 13 355 331 329 326 321 313 310 312 318 325 329 336 338 341 336
39 30 117 78 27 128 107 124 140 145 153 132 126 122 127 127 121 121 123 119 118 112 103 92 70 40 355 343 335 323 324 321 319 317 314 315 325 330 336 349 355 351 345 344
93 32 111 258 231 107 91 52 103 109 130 121 112 98 97 113 126 123 125 124 120 110 90 49 1 339 328 324 321 320 318 314 312 310 312 325 344 358 3 16 356 349 348 343
107 82 163 69 135 130 121 50 128 120 118 118 116 98 65 109 122 122 123 119 110 89 24 346 333 330 331 328 328 329 328 327 314 310 332 360 30 24 24 12 357 359 351 340
98 96 174 44 112 112 88 89 116 123 129 136 141 126 137 122 122 119 119 115 89 21 350 334 332 338 332 334 343 346 345 337 321 341 342 28 33 35 8 7 3 360 356 3
111 100 92 354 340 331 149 157 136 139 141 131 90 115 140 136 122 116 112 90 16 2 357 354 350 349 0 10 9 9 355 337 323 326 340 66 30 352 349 356 351 357 6 10
83 106 112 352 329 115 137 117 124 120 125 109 114 126 129 126 118 109 84 62 47 30 30 26 25 31 34 21 14 1 348 331 318 320 328 148 10 316 336 348 344 354 11 18
40 58 37 52 81 95 116 113 117 120 121 128 128 125 126 118 109 97 83 70 63 53 52 49 41 32 24 17 6 356 345 336 314 315 327 162 271 314 316 334 352 357 13 15
127 20 62 67 81 98 115 112 115 123 129 130 122 122 115 108 98 87 76 67 62 60 55 45 39 31 22 11 7 1 356 347 337 320 288 188 288 295 313 352 345 1 8 15
82 113 77 56 74 103 108 113 113 115 117 117 117 112 109 102 93 82 74 66 59 52 48 43 38 32 20 14 16 13 6 359 339 274 193 192 208 226 292 324 332 343 355 359
88 90 104 92 94 109 113 109 113 115 111 106 105 106 102 90 82 75 67 60 55 46 43 38 36 29 22 16 17 14 9 8 359 332 196 196 184 233 270 294 319 326 332 339
98 99 100 101 105 107 108 111 110 105 101 103 100 100 94 88 76 69 61 53 48 40 36 35 34 29 24 17 17 15 12 13 20 17 218 197 205 201 230 288 303 304 310 317
99 105 90 102 103 108 106 106 105 101 101 98 99 95 90 84 76 64 54 46 39 37 36 32 26 25 21 18 18 19 18 23 25 23 28 71 181 276 308 300 301 312 301 305
105 114 112 115 112 109 109 111 106 99 96 93 92 93 95 89 70 62 52 45 39 43 39 35 32 29 24 20 21 23 24 29 30 41 49 58 65 66 57 45 33 19 21 19
112 111 115 110 111 112 113 111 104 102 100 101 97 87 80 74 73 69 65 51 45 42 37 35 33 30 26 28 28 31 34 37 31 42 53 64 70 69 64 58 52 44 29 21
120 113 116 114 118 121 117 112 107 108 110 109 105 90 85 88 85 79 66 53 47 44 37 34 36 32 33 38 35 35 34 38 40 48 55 56 59 58 58 56 52 46 43 36
122 120 116 108 118 123 122 116 113 109 110 116 121 108 95 94 84 81 71 61 56 51 46 37 36 35 41 43 37 36 36 42 47 52 57 59 58 58 53 53 50 50 47 40
121 117 110 103 100 108 114 114 112 111 112 116 117 108 98 86 86 83 79 71 63 55 47 40 41 45 45 48 43 47 49 49 53 56 54 54 57 53 54 54 52 48 45 41
124 113 106 99 98 95 107 110 108 111 112 116 117 117 103 93 92 84 79 71 65 51 43 45 46 52 51 51 50 54 55 58 57 57 54 54 53 50 47 45 42 39 38 37
132 125 107 98 96 94 97 97 104 113 111 111 117 123 103 94 97 87 79 74 64 57 42 46 49 51 52 51 51 55 57 56 55 55 54 50 46 45 42 38 37 34 31 28
140 124 108 95 91 100 99 99 102 109 115 122 132 127 113 106 100 94 80 70 64 57 48 46 49 51 51 50 50 49 49 50 50 49 48 45 41 39 36 33 32 30 28 25
137 122 112 103 98 100 97 97 99 101 114 127 132 133 133 117 98 84 78 68 59 52 46 45 42 46 48 45 45 45 45 45 44 43 41 39 34 32 30 29 28 27 25 23
139 127 116 114 114 106 102 103 100 100 117 131 134 127 116 103 97 87 68 59 52 43 38 38 34 33 37 38 38 35 36 37 36 35 34 31 29 26 23 23 21 19 18 18
157 145 145 140 131 123 113 110 106 105 111 125 134 128 114 101 88 65 64 49 41 31 26 23 22 25 26 27 28 27 28 29 28 26 24 21 19 16 14 13 12 12 11 8
165 152 135 129 150 146 135 124 116 113 114 117 123 122 109 103 100 77 61 39 21 11 9 12 16 22 25 24 22 25 27 24 20 17 13 9 6 3 2 2 1 360 358 359
170 167 174 192 204 201 183 155 135 122 129 128 115 105 97 96 92 89 75 48 34 31 39 37 31 28 24 23 21 18 14 11 8 7 5 3 360 357 355 354 353 351 349 349